Location: Arcueil
(48.7999°N, 2.3326°E)
Time: 17:48:47
(UTC+00:00)

JY1SAT - Pass Details

Date: 23 June 2024
Orbit: 535 x 549 km, 97.5° (Epoch: 18 July)

Event Time Altitude Azimuth Distance (km) Brightness Sun altitude
Exits shadow 21:00:07 - 179° (S) 2,286 ? -8.1°
Reaches altitude 10° 21:01:15 10° 183° (S) 1,820 ? -8.2°
Maximum altitude 21:05:06 52° 260° (W) 690 ? -8.6°
Drops below altitude 10° 21:09:01 10° 338° (NNW) 1,843 ? -9.0°
Sets 21:11:12 0° 343° (NNW) 2,744 ? -9.3°
